Погода Усановы

Погода Усановы : погода сейчас, прогноз погоды и архив. Всё, что Вы хотите узнать о погоде Усановы!

Поиск расширенной информации на нашем сайте:

Другие новости

Новости СМИ2

Главная страница сайта

Новости сайта

03.07.2017

Напоминаем, что на нашем специализированном сайте Метеоцентр.Азия вы можете получить высокодетализированные автоматические прогнозы погоды по пунктам России, СНГ и мира в авиационном формате (включающие направление и скорость ветра, видимость, явления погоды, количество и форму облачности, нижнюю и верхнюю границу облачности).

Рекомендуем: Генераторы бензиновые купить генераторы.

Погода Усановы - сегодня

Время (UTC), дата Ветер
(°,м/с) 
Видим.   Явления Облачность Т
(°С)
Тd
(°С)
f(%) Тe
(°С)
Pmin
(гПа)
dP
(гПа)
Po
(мм)
O2
(г/м3)
Тmin Tmax R s Состояние
почвы
09 22.09.17 010 (С) 3{10}  10 км  в посл. час ливневой снег  10/10 300 м кучево-дожд. 
[Cb cap]
+2.2 -3.4 66 +1  1023.4  0.9  762  305           
12 22.09.17 350 (С) 10 км  {ливн. осадки}  10/10 300 м кучево-дожд. 
[Cb cap]
+1.4 -4.5 65 1024.8  1.4  763  306           
15 22.09.17 360 (С) 10 км  {ливн. осадки}  10/10 300 м кучево-дожд. 
[Cb cap]
+1.1 -4.6 66 1025.8  764  307    +2.5  0.0     
18 22.09.17 360 (С) 10 км  {ливн. осадки}  10/10 300 м кучево-дожд. 
[Cb cap]
+1 -4.5 67 -1  1026  0.2  764  307           
21 22.09.17 360 (С) 10 км    10/10 300 м кучево-дожд. 
[Cb cap]
+0.8 -4.3 69 1026.2  0.2  764  307           
00 23.09.17 330 (СЗ) 10 км  {ливн. осадки}  10/10 300 м кучево-дожд. 
[Cb cap]
+0.5 -4.4 70 +1  1026.8  0.5  764  308           
03 23.09.17 340 (С) 10 км    10/10 300 м кучево-дожд. 
[Cb cap]
+0.5 -2 83 -1  1027  0.2  764  308  +0.2    0.0    влажная 
06 23.09.17 360 (С) 10 км    10/10 300 м кучево-дожд. 
[Cb cap]
+1.2 -3.6 70 1027.5  0.5  765  307           
09 23.09.17 350 (С) 10 км  {ливн. осадки}  10/10 300 м кучево-дожд. 
[Cb cap]
+2.1 -4.1 63 +1  1028  0.5  765  306           
12 23.09.17 010 (С) 10 км  {ливн. осадки}  10/10 300 м кучево-дожд. 
[Cb cap]
+1.8 -4.3 64 1029.3  1.2  766  307           
15 23.09.17 350 (С) 10 км    10/10 300 м кучево-дожд. 
[Cb cap]
+1.5 -3.8 68 +1  1030.3  0.9  767  308    +2.4  0.0     
18 23.09.17 330 (СЗ) 10 км    8/8 300 м кучево-дожд. 
[Cb cap]
+0.9 -3.8 71 +2  1031.1  0.8  767  309           
21 23.09.17 330 (СЗ) 10 км    9/9 300 м кучево-дожд. 
[Cb cap]
+1.1 -3.7 70 +2  1031.8  0.7  768  309           
00 24.09.17 340 (С) 10 км    10/10 300 м кучево-дожд. 
[Cb cap]
+1 -4 69 +2  1032.8  769  309           
03 24.09.17 010 (С) 10 км    10/10 600 м 
[Sc]
+0.9 -3.5 72 1034.5  1.6  770  310  +0.8        влажная 
06 24.09.17 030 (СВ) 10 км    10/10 300 м кучево-дожд. 
[Cb cap]
+1.7 -4.1 65 +1  1035.3  0.8  771  309           
09 24.09.17 010 (С) н/о    н/о 
+3 -3.4 63 +2  1035.6  0.3  771  308           
12 24.09.17 тихо ()   10 км    6/3 600 м верхняя 
[Sc|Ci fib]
+2.9 -2.6 67 +3  1035.5  0.1  771  308           
15 24.09.17 тихо ()   10 км    6/6 600 м 
[Sc]
-2.1 -2.9 94 -2  1035.6  0.1  771  313    +4.5       
18 24.09.17 тихо ()   10 км    9/9 600 м 
[Sc]
-0.4 -1.6 92 -0  1034.9  -0.6  770  311           
21 24.09.17 тихо ()   10 км    10/10 600 м 
[Sc]
-0.2 -1 94 -0  1034.1  -0.8  770  310           
00 25.09.17 тихо ()   10 км    10/10 600 м 
[Sc]
+0.4 -0.6 93 1033.2  -0.9  769  309           
03 25.09.17 240 (ЮЗ) 10 км    10/10 600 м 
[Sc]
+2.4 -1.1 78 +3  1032.1  -1  768  307  -2.1        влажная 
06 25.09.17 270 (З) 10 км    9/9 600 м 
[Sc]
+5.9 -0.8 62 +6  1031.7  -0.3  768  303           
09 25.09.17 250 (З) 10 км    8/8 600 м 
[Sc]
+7.2 -2.1 52 +7  1031.1  -0.6  768  302           
Время (UTC), дата Ветер
(°,м/с) 
Видим.   Явления Облачность Т
(°С)
Тd
(°С)
f(%) Тe
(°С)
Pmin
(гПа)
dP
(гПа)
Po
(мм)
O2
(г/м3)
Тmin Tmax R s Состояние
почвы

Для получения пояснительной информации подведите курсор к названию столбца.

ПОГОДА Усановы - архив

Всё, что Вы хотите узнать о погоде Усановы - удобно и подробно!

Выберите нужную дату (начиная с 1 января 2015* года) и нажмите кнопку "Найти".
Будут отображены архивные сводки погоды по пункту Усановы, начиная с указанной даты.


Отображать данные в формате CSV (для использования в таблицах Excel)


Внимание! Наш архив погоды предназначен исключительно для личного некоммерческого использования в познавательных целях. Если Вам необходимы официальные справки о состоянии погоды (для производственных, юридических, коммерческих и т.п. целей), обращайтесь в органы Росгидромета.

*Примечание: данная дата относится к архиву по метеостанциям СССР (Россия, СНГ, Балтия).
Архив по метеостанциям Зарубежной Европы и Азии (кроме Китая) хранится 10 дней, по другим регионам земного шара (Китай, Африка, Америка, Австралия, Океания) - 1 день.

Усановы - район местоположения метеостанции


Название, широта, долгота, высота метеостанции:
Усановы 59.5°ш. 73.4°д. 82 м над ур. моря [Российская Федерация]

Дополнительная информация

В oтличие oт бoльшинства пoгoдных сайтoв мы публикуем пoдрoбную метеoинфoрмацию в детальнoм прoфессиoнальнoм фoрмате.

Характеристики температуры и влажнoсти вoздуха измеряются на высoте 2 м в тени вдали oт зданий и деревьев.
Скoрoсть ветра измеряется на высoте 10 м (на урoвне рoста челoвека скoрoсть ветра ниже в 1.5-2 раза). Если метеoстанция нахoдится в гoрoде или в лесу, тo скoрoсть ветра занижена на 2-4 м/с пo сравнению с oткрытым местoм. Скoрoсть ветра над акватoриями крупных рек и oзёр, а также на вершинах хoлмoв на 2-5 м/с выше, чем в oбычных услoвиях.
Атмoсфернoе давление в разных тoчках местнoсти мoжет значительнo oтличаться oт давления на метеoстанции, в зависимoсти oт услoвий рельефа (при пoдъёме на 10 м давление пoнижается примернo на 1 мм рт.ст.).